Weather History for Big Piney, WY

Change the Weather History Date:

Thursday, January 24, 2013

  Actual Average Record
Temperature  
Mean Temperature 20 °F 11 °F  
Max Temperature 33 °F 26 °F 46 °F (1977)
Min Temperature 7 °F -4 °F -35 °F (1979)
Degree Days  
Heating Degree Days 45 54  
Month to date heating degree days 1416 1296  
Since 1 July heating degree days 5138 5735  
Cooling Degree Days 0 0  
Month to date cooling degree days 0 0  
Year to date cooling degree days 0 0  
Moisture  
Dew Point 16 °F    
Average Humidity 82    
Maximum Humidity 96    
Minimum Humidity 68    
Precipitation  
Precipitation 0.00 in 0.01 in 0.10 in (1996)
Month to date precipitation 0.07 0.25  
Year to date precipitation 0.07 0.25  
Sea Level Pressure  
Sea Level Pressure 30.32 in    
Wind  
Wind Speed 5 mph (NE)    
Max Wind Speed 9 mph    
Max Gust Speed 10 mph    
Visibility 10 miles    
Events      
T = Trace of Precipitation, MM = Missing Value Source: NWS Daily Summary

Daily Weather History Graph

Daily Weather History Graph

Search for Another Location

Airport:

Trip Planner

Search our weather history database for the weather conditions in past years. The results will help you decide how hot, cold, wet, or windy it might be!

Date:

Astronomy

Jan. 24, 2013 Rise Set
Actual Time 7:41 AM MST 5:24 PM MST
Civil Twilight 7:11 AM MST 5:54 PM MST
Nautical Twilight 6:36 AM MST 6:28 PM MST
Astronomical Twilight 6:03 AM MST 7:02 PM MST
Moon 3:28 PM MST (1/24) 5:42 AM MST (1/24)
Length of Visible Light 10h 43m
Length of Day
9h 42m
Waxing Gibbous, 95% of the Moon is Illuminated
Jan 24
Waxing Gibbous
Jan 26
Full
Feb 3
Last Quarter
Feb 10
New
Feb 17
First Quarter

Hourly Weather History & Observations

Time (MST) Temp. Windchill Dew Point Humidity Pressure Visibility Wind Dir Wind Speed Gust Speed Precip Events Conditions
12:53 AM 7.0 °F - 1.9 °F 80% 30.39 in 10.0 mi Calm Calm - N/A   Mostly Cloudy
1:53 AM 10.0 °F 0.4 °F 5.0 °F 80% 30.37 in 10.0 mi North 5.8 mph - N/A   Overcast
2:53 AM 10.0 °F -0.9 °F 3.9 °F 76% 30.35 in 10.0 mi ENE 6.9 mph - N/A   Overcast
3:53 AM 12.9 °F - 7.0 °F 77% 30.33 in 10.0 mi Calm Calm - N/A   Overcast
4:53 AM 14.0 °F 3.9 °F 7.0 °F 74% 30.31 in 10.0 mi ENE 6.9 mph - N/A   Overcast
5:53 AM 15.1 °F 6.4 °F 8.1 °F 74% 30.32 in 10.0 mi NNE 5.8 mph - N/A   Overcast
6:53 AM 15.1 °F 7.7 °F 8.1 °F 74% 30.33 in 10.0 mi East 4.6 mph - N/A   Overcast
7:53 AM 16.0 °F 10.4 °F 10.0 °F 77% 30.32 in 10.0 mi SSW 3.5 mph - N/A   Overcast
8:53 AM 19.9 °F 11.1 °F 12.9 °F 74% 30.31 in 10.0 mi North 6.9 mph - N/A   Overcast
9:53 AM 21.0 °F - 12.9 °F 71% 30.32 in 10.0 mi Calm Calm - N/A   Overcast
10:53 AM - - - N/A% 30.20 in - North - - N/A   Unknown
11:53 AM 27.0 °F 20.5 °F 19.9 °F 75% 30.32 in 10.0 mi ENE 5.8 mph - N/A   Partly Cloudy
12:53 PM 30.0 °F 22.4 °F 21.9 °F 72% 30.29 in 10.0 mi ENE 8.1 mph - N/A   Scattered Clouds
1:53 PM 30.9 °F 24.3 °F 24.1 °F 76% 30.25 in 10.0 mi ENE 6.9 mph - N/A   Overcast
2:53 PM 32.0 °F 24.8 °F 25.0 °F 75% 30.27 in 10.0 mi NE 8.1 mph - N/A   Overcast
3:53 PM 32.0 °F 28.7 °F 25.0 °F 75% 30.27 in 10.0 mi ESE 3.5 mph - N/A   Overcast
4:53 PM 32.0 °F - 26.1 °F 79% 30.30 in 10.0 mi Calm Calm - N/A   Overcast
5:53 PM 27.0 °F 18.7 °F 23.0 °F 85% 30.30 in 10.0 mi West 8.1 mph - N/A   Mostly Cloudy
6:53 PM 26.1 °F - 23.0 °F 88% 30.33 in 10.0 mi Calm Calm - N/A   Mostly Cloudy
7:53 PM 25.0 °F 20.7 °F 21.9 °F 88% 30.33 in 10.0 mi NE 3.5 mph - N/A   Overcast
8:53 PM 23.0 °F 15.8 °F 21.0 °F 92% 30.34 in 10.0 mi NNW 5.8 mph - N/A   Overcast
9:53 PM 21.0 °F 13.4 °F 19.0 °F 92% 30.37 in 10.0 mi North 5.8 mph - N/A   Mostly Cloudy
10:53 PM 21.9 °F 17.2 °F 19.9 °F 92% 30.27 in 10.0 mi Variable 3.5 mph - N/A   Overcast
11:53 PM 18.0 °F 8.7 °F 15.1 °F 88% 30.37 in 10.0 mi East 6.9 mph - N/A   Clear